{"data":{"norad_id":33053,"epoch":"2026-09-20T02:14:15.730368Z","epoch_age_seconds":49551,"freshness":"FRESH","line1":"1 33053U 08029A   26263.09323762  .00002439  00000+0  83369-4 0  9994","line2":"2 33053  25.5821 265.2857 0008013   9.8768 350.1927 15.24371776 10184","mean_motion":15.24371776,"eccentricity":0.0008013,"inclination_deg":25.5821,"raan_deg":265.2857,"arg_perigee_deg":9.8768,"mean_anomaly_deg":350.1927,"bstar":8.3369e-5,"rev_number":1018,"period_min":94.465144439935,"perigee_km":487.16693774296,"apogee_km":498.17809707556,"semimajor_km":6870.8095174093,"source":"CELESTRAK","updated_at":"2026-09-20T09:00:47.143366Z"}}